AirNav   Everest Fuels
 
 843 users online  

2WI6 Matson Airport
Stoughton, Wisconsin, USA

GOING TO STOUGHTON?


FAA INFORMATION EFFECTIVE 18 JUNE 2020

Location

FAA Identifier: 2WI6
Lat/Long: 42-54-49.0070N 089-11-10.4140W
42-54.816783N 089-11.173567W
42.9136131,-89.1862261
(estimated)
Elevation: 915 ft. / 279 m (estimated)
Variation: 00W (1985)
From city: 2 miles E of STOUGHTON, WI
Time zone: UTC -5 (UTC -6 during Standard Time)
Zip code: 53589

Airport Operations

Airport use: Private use. Permission required prior to landing
Activation date: 04/1948
Control tower: no
ARTCC: CHICAGO CENTER
FSS: GREEN BAY FLIGHT SERVICE STATION
Attendance: UNATNDD
Wind indicator: yes
Segmented circle: no

Airport Communications

WX ASOS at MSN (15 nm NW): PHONE 608-249-0615
WX AWOS-3 at JVL (19 nm S): PHONE 608-758-1723
WX AWOS-3 at C29 (19 nm NW): 118.675 (608-833-1686)

Nearby radio navigation aids

VOR radial/distance  VOR name  Freq  Var
MSNr151/15.4MADISON VORTAC108.6003E
JVLr348/21.6JANESVILLE VOR/DME114.3003E

 
NDB name  Hdg/Dist  Freq  Var  ID
ROCK RIVER233/25.537101WRYV .-. -.-- ...-
LAKE LAWN298/29.140402WLVV .-.. ...- ...-
JUNEAU215/37.534401WUNU ..- -. ..-

Airport Services

Airframe service: NONE
Powerplant service: NONE

Runway Information

Runway N/S

Dimensions: 2500 x 100 ft. / 762 x 30 m
Surface: turf
RUNWAY N  RUNWAY S
Traffic pattern: leftleft
Obstructions: trees
GRAVEL PITS AND TREES SOUTH OF RWY; ALSO, 350' TV TOWER 2 MILES SW.
trees

Airport Ownership and Management from official FAA records

Ownership: Privately-owned
Owner: MATSON DEVELOPERS, INC
PO BOX 333
STOUGHTON, WI 53589
Phone 608-873-8700
Manager: JOHN MATSON
839 US HWY 51
STOUGHTON, WI 53589
Phone 608-712-2353

Airport Operational Statistics

Aircraft based on the field: 25
Single engine airplanes: 25
    

Additional Remarks

FOR CD CTC CHICAGO ARTCC AT 630-906-8921.

Instrument Procedures

There are no published instrument procedures at 2WI6.

Some nearby airports with instrument procedures:

87Y - Blackhawk Airfield (11 nm N)
KMSN - Dane County Regional Airport-Truax Field (15 nm NW)
61C - Fort Atkinson Municipal Airport (16 nm E)
KJVL - Southern Wisconsin Regional Airport (19 nm S)
C29 - Middleton Municipal Airport - Morey Field (19 nm NW)
 
Loc | Ops | Rwys | IFR | FBO | Links
Com | Nav | Svcs | Stats | Notes
Area around 2WI6 (Matson Airport)
 
Road maps at: MapQuest Bing Google
 
Aerial photo
WARNING: Photo may not be current or correct
Aerial photo of 2WI6 (Matson Airport)
Photo by John Matson
Taken in October 1999
looking south.

Do you have a better or more recent aerial photo of Matson Airport that you would like to share? If so, please send us your photo.

 
Sectional chart

 
Airport distance calculator
Flying to Matson Airport? Find the distance to fly.

From to 2WI6

Sunrise and sunset
Times for 03-Jul-2020
 Local
(UTC-5)
 Zulu
(UTC)
Morning civil twilight04:4909:49
Sunrise05:2410:24
Sunset20:3801:38
Evening civil twilight21:1302:13

Current date and time
Zulu (UTC)  03-Jul-2020 23:57:05
Local (UTC-5)  03-Jul-2020 18:57:05
 
METAR
KMSN 
15nm NW 
032253Z 09003KT 10SM FEW055 SCT075 BKN250 32/21 A3002 RMK AO2 LTG DSNT E SLP159 CB DSNT E-SE T03170206
KJVL 
19nm SE 
032245Z 09006KT 10SM SCT050 BKN250 32/18 A3002
KC29 
19nm NW 
032335Z AUTO 10003KT 10SM CLR 32/20 A3003 RMK AO1 T03150195
KRYV 
26nm NE 
032335Z AUTO 11005KT 10SM BKN075 25/22 A3004 RMK AO2 T02460223
KEFT 
26nm SW 
032335Z AUTO 06003KT 10SM CLR 30/19 A3003 RMK AO2 T02970194
TAF
KMSN 
15nm NW 
032045Z 0321/0418 36004KT P6SM VCTS SCT050CB FM040100 07004KT P6SM SCT180
KJVL 
19nm SE 
032045Z 0321/0418 36004KT P6SM VCTS SCT050CB FM040100 06006KT P6SM SCT200
NOTAMs
Click for the latest NOTAMs
NOTAMs are issued by the DoD/FAA and will open in a separate window not controlled by AirNav.

 

 
 

Would you like to see your business listed on this page?

 If your business provides an interesting product or service to pilots, flight crews, aircraft, or users of the Matson Airport, you should consider listing it here.  To start the listing process, click on the button below
 
Add a business
 

Other Pages about Matson Airport

Update a link
 
Copyright © AirNav, LLC. All rights reserved. Privacy Policy  Contact